Regional Weather Roundup
Issued by NWS

Home | Current Version | Previous Version | Text Only | Print | Product List | Glossary Off
Versions: 1 2 3 4 5 6 7 8 9 10 11 12 13 14 15 16 17 18 19 20 21 22 23 24 25 26 27

000
ASUS45 KSLC 160010
RWRUT

UTAH REGIONAL WEATHER ROUNDUP
NATIONAL WEATHER SERVICE SALT LAKE CITY UT
600 PM MDT SUN OCT 15 2017

UTZ001>011-023>025-160100-

NORTHERN UTAH

CITY           SKY/WX    TMP DP  RH WIND       PRES   REMARKS
BRIGHAM CITY   CLEAR     54   9  16 SW5       30.43F
HILL AFB       CLEAR     52  21  29 NW6       30.42F
LOGAN          CLEAR     56  18  22 CALM      30.42F
OGDEN          CLEAR     53  21  28 NW3       30.42F
SALT LAKE CITY PTCLDY    55  25  31 W7        30.42F
TOOELE VALLEY  CLEAR     50  21  32 N3        30.44F
WENDOVER       CLEAR     50  15  24 E5        30.43F
WEST JORDAN    CLEAR     51  26  38 NW6       30.44S

$$

UTZ011>015-024>027-160100-

CENTRAL/NORTHEAST UTAH

CITY           SKY/WX    TMP DP  RH WIND       PRES   REMARKS
PROVO AIRPORT  CLEAR     53  24  32 W3        30.43S
MOAB/CANYONLAN CLEAR     60   4  10 NW8       30.41F
DELTA          CLEAR     55  16  21 CALM      30.41F
PRICE          CLEAR     58   6  12 CALM      30.46S
ROOSEVELT      CLEAR     55   9  15 CALM      30.46S
VERNAL         CLEAR     57  10  15 CALM      30.44F

$$

UTZ013>016-019>022-027-160100-

SOUTHERN UTAH

CITY           SKY/WX    TMP DP  RH WIND       PRES   REMARKS
BRYCE CANYON   CLEAR     57  -1   9 S7        30.50S
CEDAR CITY     CLEAR     63  12  13 N5        30.39S
MILFORD        CLEAR     60  12  15 N13       30.39F
ST GEORGE      CLEAR     75  10   8 CALM      30.26F
HANKSVILLE     CLEAR     61   9  12 W5        30.44F
BLANDING         N/A     62   7  11 S3        30.50F

$$

REGIONAL REPORTS     COLORADO/ARIZONA

CITY           SKY/WX    TMP DP  RH WIND       PRES   REMARKS
CRAIG, CO      CLEAR     59  10  14 CALM      30.44F
GRAND JUNCTION CLEAR     61  12  14 W7        30.42S
RIFLE, CO      CLEAR     61  10  13 CALM      30.42S
MONTROSE, CO   CLEAR     59   8  13 NW6       30.45S
CORTEZ, CO     CLEAR     61  14  16 S8        30.44S
COLORADO CITY    N/A     75   5   6 SE7       30.37S
PAGE, AZ       CLEAR     66   7  10 CALM      30.38F
GRAND CANYON   CLEAR     61  -8   6 NE13      30.45S
KINGMAN, AZ    SUNNY     78  16   9 NE9       30.24S
FLAGSTAFF, AZ  CLEAR     62  -7   6 E10       30.45F

$$

REGIONAL REPORTS    NEVADA/IDAHO/WYOMING

CITY           SKY/WX    TMP DP  RH WIND       PRES   REMARKS
LAS VEGAS, NV  MOSUNNY   78  11   8 CALM      30.21F
ELY, NY        SUNNY     63   7  11 N8        30.38F
ELKO, NV       MOSUNNY   61   6  11 CALM      30.34F
POCATELLO, ID  CLEAR     54  28  36 NE8       30.40F
BURLEY, ID     CLEAR     56  25  30 NE10      30.35F
FORT BRIDGER,    N/A     56  12  17 SE5       30.48S
EVANSTON, WY   CLEAR     58   5  12 W13       30.46R
ROCK SPRINGS,  CLEAR     54   9  16 W9        30.45S
KEMMERER, WY   CLEAR     52  10  19 W8        30.47S

$$




USA.gov is the U.S. government's official web portal to all federal, state and local government web resources and services.